Lexington, NE

5:12 AM CST on November 21, 2017 (GMT -0600)
Kelly

Weather History for KLXN - January, 2013

Change the Weather History Date:

Monday, January 7, 2013

  Actual Average Record
Temperature  
Mean Temperature 30 °F -  
Max Temperature 43 °F 37 °F 64 °F (2003)
Min Temperature 17 °F 12 °F -9 °F (2004)
Degree Days  
Heating Degree Days 35    
Moisture  
Dew Point 22 °F    
Average Humidity 77    
Maximum Humidity 93    
Minimum Humidity 47    
Precipitation  
Precipitation 0.00 in - - ()
Sea Level Pressure  
Sea Level Pressure 29.94 in    
Wind  
Wind Speed 6 mph (WNW)    
Max Wind Speed 12 mph    
Max Gust Speed -    
Visibility 10 miles    
Events      
Averages and records for this station are not official NWS values.
T = Trace of Precipitation, MM = Missing Value Source: NWS Daily Summary

Daily Weather History Graph

Daily Weather History Graph

Search for Another Location

Airport or City:

Trip Planner

Search our weather history database for the weather conditions in past years. The results will help you decide how hot, cold, wet, or windy it might be!

Date:

Astronomy

Jan. 07, 2013 Rise Set
Actual Time 8:03 AM CST 5:28 PM CST
Civil Twilight 7:32 AM CST 5:58 PM CST
Nautical Twilight 6:58 AM CST 6:32 PM CST
Astronomical Twilight 6:25 AM CST 7:05 PM CST
Moon 3:28 AM CST (1/7) 1:40 PM CST (1/7)
Length of Visible Light 10h 25m
Length of Day
9h 24m
Waning Crescent, 22% of the Moon is Illuminated
Jan 7
Waning Crescent
Jan 11
New
Jan 18
First Quarter
Jan 26
Full
Feb 3
Last Quarter

Hourly Weather History & Observations

Time (CST) Temp. Windchill Dew Point Humidity Pressure Visibility Wind Dir Wind Speed Gust Speed Precip Events Conditions
12:15 AM 28.2 °F 23.1 °F 24.1 °F 84% 29.97 in 10.0 mi South 4.6 mph - N/A   Clear
12:35 AM 27.5 °F 22.2 °F 23.2 °F 84% 29.97 in 10.0 mi SE 4.6 mph - N/A   Clear
12:55 AM 27.5 °F 21.1 °F 23.4 °F 84% 29.96 in 10.0 mi SSE 5.8 mph - N/A   Clear
1:55 AM 28.2 °F 18.3 °F 23.7 °F 83% 29.92 in 10.0 mi South 11.5 mph - N/A   Clear
2:35 AM 28.8 °F 20.9 °F 23.7 °F 81% 29.93 in 10.0 mi South 8.1 mph - N/A   Clear
3:15 AM 28.2 °F 19.5 °F 23.0 °F 81% 29.93 in 10.0 mi South 9.2 mph - N/A   Clear
3:35 AM 27.7 °F 21.3 °F 22.8 °F 82% 29.94 in 10.0 mi South 5.8 mph - N/A   Clear
3:55 AM 24.8 °F - 20.5 °F 84% 29.94 in 10.0 mi Calm Calm - N/A   Clear
4:15 AM 26.1 °F 21.9 °F 22.1 °F 85% 29.93 in 10.0 mi WSW 3.5 mph - N/A   Clear
4:35 AM 26.6 °F 20.0 °F 22.3 °F 84% 29.92 in 10.0 mi SW 5.8 mph - N/A   Clear
4:55 AM 25.5 °F 19.9 °F 21.2 °F 84% 29.91 in 10.0 mi SW 4.6 mph - N/A   Clear
5:15 AM 25.7 °F 20.1 °F 22.1 °F 86% 29.91 in 10.0 mi SW 4.6 mph - N/A   Clear
5:35 AM 20.7 °F 14.2 °F 17.6 °F 88% 29.91 in 10.0 mi West 4.6 mph - N/A   Clear
5:55 AM 21.4 °F 12.8 °F 19.4 °F 92% 29.91 in 10.0 mi West 6.9 mph - N/A   Clear
6:15 AM 22.8 °F 13.6 °F 19.8 °F 88% 29.92 in 10.0 mi West 8.1 mph - N/A   Clear
6:35 AM 20.3 °F 10.6 °F 17.6 °F 89% 29.94 in 10.0 mi West 8.1 mph - N/A   Clear
6:55 AM 20.7 °F 14.2 °F 18.3 °F 91% 29.94 in 10.0 mi WSW 4.6 mph - N/A   Clear
7:15 AM 19.6 °F 11.7 °F 17.6 °F 92% 29.94 in 10.0 mi West 5.8 mph - N/A   Clear
7:35 AM 18.0 °F 9.8 °F 15.3 °F 89% 29.94 in 10.0 mi WNW 5.8 mph - N/A   Clear
7:55 AM 17.8 °F 9.6 °F 15.8 °F 92% 29.95 in 10.0 mi WNW 5.8 mph - N/A   Clear
8:15 AM 18.5 °F 7.5 °F 16.9 °F 93% 29.94 in 10.0 mi WNW 9.2 mph - N/A   Clear
8:35 AM 17.6 °F 6.4 °F 15.8 °F 93% 29.95 in 10.0 mi WNW 9.2 mph - N/A   Clear
8:55 AM 19.9 °F 7.9 °F 17.4 °F 90% 29.96 in 10.0 mi WNW 11.5 mph - N/A   Clear
9:15 AM 21.0 °F 12.4 °F 17.6 °F 87% 29.97 in 10.0 mi WNW 6.9 mph - N/A   Clear
9:35 AM 22.8 °F 12.9 °F 18.9 °F 85% 29.98 in 10.0 mi WNW 9.2 mph - N/A   Clear
9:55 AM 23.9 °F 15.8 °F 19.4 °F 83% 29.98 in 10.0 mi WNW 6.9 mph - N/A   Clear
10:15 AM 27.0 °F 18.7 °F 21.6 °F 80% 29.99 in 10.0 mi WNW 8.1 mph - N/A   Clear
10:35 AM 28.9 °F 19.8 °F 22.6 °F 77% 30.00 in 10.0 mi WNW 10.4 mph - N/A   Clear
10:55 AM 30.2 °F 20.8 °F 23.2 °F 75% 29.99 in 10.0 mi NW 11.5 mph - N/A   Clear
11:35 AM 33.4 °F 27.3 °F 26.2 °F 75% 29.99 in 10.0 mi NW 6.9 mph - N/A   Clear
11:55 AM 35.8 °F 28.8 °F 27.5 °F 72% 29.99 in 10.0 mi NW 9.2 mph - N/A   Clear
12:35 PM 40.8 °F 35.6 °F 25.9 °F 55% 29.97 in 10.0 mi North 8.1 mph - N/A   Clear
12:55 PM 41.4 °F 36.2 °F 25.2 °F 53% 29.96 in 10.0 mi North 8.1 mph - N/A   Clear
1:15 PM 41.9 °F 37.5 °F 25.5 °F 52% 29.95 in 10.0 mi NNE 6.9 mph - N/A   Clear
1:35 PM 42.6 °F 37.8 °F 25.9 °F 52% 29.94 in 10.0 mi NNE 8.1 mph - N/A   Clear
1:55 PM 43.2 °F 39.7 °F 25.5 °F 50% 29.94 in 10.0 mi NNE 5.8 mph - N/A   Clear
2:15 PM 43.9 °F 38.8 °F 25.2 °F 48% 29.93 in 10.0 mi NNE 9.2 mph - N/A   Clear
2:35 PM 43.7 °F 39.1 °F 24.4 °F 47% 29.94 in 10.0 mi NE 8.1 mph - N/A   Clear
2:55 PM 43.2 °F 38.4 °F 24.8 °F 48% 29.93 in 10.0 mi NE 8.1 mph - N/A   Clear
3:15 PM 41.2 °F 36.6 °F 25.7 °F 54% 29.93 in 10.0 mi ENE 6.9 mph - N/A   Clear
3:35 PM 41.9 °F 39.0 °F 26.4 °F 54% 29.94 in 10.0 mi ENE 4.6 mph - N/A   Clear
3:55 PM 42.3 °F 39.4 °F 25.3 °F 51% 29.93 in 10.0 mi East 4.6 mph - N/A   Clear
4:15 PM 41.2 °F 36.6 °F 25.3 °F 53% 29.92 in 10.0 mi East 6.9 mph - N/A   Clear
4:35 PM 40.8 °F 38.8 °F 25.3 °F 54% 29.93 in 10.0 mi ENE 3.5 mph - N/A   Clear
5:15 PM 39.4 °F - 25.5 °F 58% 29.93 in 10.0 mi Calm Calm - N/A   Clear
5:35 PM 38.7 °F - 25.3 °F 59% 29.92 in 10.0 mi Calm Calm - N/A   Clear
5:55 PM 37.2 °F - 24.8 °F 61% 29.92 in 10.0 mi Calm Calm - N/A   Clear
6:15 PM 35.4 °F - 24.8 °F 65% 29.92 in 10.0 mi Calm Calm - N/A   Clear
6:35 PM 32.9 °F - 24.8 °F 72% 29.93 in 10.0 mi Calm Calm - N/A   Clear
6:55 PM 30.6 °F - 23.7 °F 76% 29.93 in 10.0 mi Calm Calm - N/A   Clear
7:15 PM 28.6 °F - 22.8 °F 79% 29.93 in 10.0 mi Calm Calm - N/A   Clear
7:35 PM 26.6 °F - 22.1 °F 83% 29.93 in 10.0 mi Calm Calm - N/A   Clear
7:55 PM 26.8 °F - 22.8 °F 85% 29.93 in 10.0 mi Calm Calm - N/A   Clear
8:15 PM 26.1 °F 21.9 °F 21.7 °F 84% 29.92 in 10.0 mi North 3.5 mph - N/A   Clear
8:35 PM 24.1 °F 19.7 °F 20.5 °F 86% 29.92 in 10.0 mi North 3.5 mph - N/A   Clear
8:55 PM 23.5 °F - 20.1 °F 87% 29.92 in 10.0 mi Calm Calm - N/A   Clear
9:15 PM 22.8 °F - 19.0 °F 85% 29.91 in 10.0 mi Calm Calm - N/A   Clear
9:35 PM 22.6 °F - 19.9 °F 89% 29.91 in 10.0 mi Calm Calm - N/A   Clear
9:55 PM 20.7 °F - 18.0 °F 89% 29.91 in 10.0 mi Calm Calm - N/A   Clear
10:15 PM 21.2 °F 14.9 °F 18.5 °F 89% 29.90 in 10.0 mi West 4.6 mph - N/A   Clear
10:35 PM 20.7 °F 15.8 °F 18.1 °F 90% 29.89 in 10.0 mi West 3.5 mph - N/A   Clear
10:55 PM 19.2 °F 12.5 °F 16.5 °F 89% 29.89 in 10.0 mi NW 4.6 mph - N/A   Clear
11:15 PM 18.3 °F 11.5 °F 15.4 °F 89% 29.89 in 10.0 mi NNW 4.6 mph - N/A   Clear
11:35 PM 18.9 °F 8.8 °F 16.2 °F 89% 29.88 in 10.0 mi North 8.1 mph - N/A   Clear
11:55 PM 18.5 °F - 15.4 °F 88% 29.88 in 10.0 mi Calm Calm - N/A   Clear